Location: Rounton
(54.4000°N, 1.3500°W)
Time: 15:01:18
(UTC+00:00)

Transit 2A - Pass Details

Date: 30 November 2021
Orbit: 591 x 967 km, 66.7° (Epoch: 21 January)

Event Time Altitude Azimuth Distance (km) Brightness Sun altitude
Rises 09:34:12 0° 318° (NW) 3,646 8.8 8.2°
Reaches altitude 10° 09:36:48 10° 315° (NW) 2,711 8.3 8.4°
Maximum altitude 09:43:05 61° 237° (WSW) 1,088 7.0 8.9°
Drops below altitude 10° 09:49:13 10° 159° (SSE) 2,643 11.5 9.3°
Sets 09:51:43 0° 156° (SSE) 3,548 11.8 9.5°
